OK1LPD-5 Weather Reports


time (UTC)temp
C
wind
direction
speed
KPH
gust
KPH
rain 1hr
cm
rain 24hr
cm
rain mn
cm
humidity
%
barometer
mb
20260505062011 16 90 0.0 3.2 0.00 0.30 0.00 99 1004.7
20260505061011 16 90 0.0 1.6 0.00 0.30 0.00 99 1004.9
20260505060008 16 90 0.0 3.2 0.00 0.30 0.00 99 1004.9
20260505055011 15 270 0.0 1.6 0.00 0.30 0.00 99 1005.0
20260505054011 13 283 0.0 3.2 0.00 0.30 0.00 99 1005.3
20260505053008 13 0 0.0 0.0 0.00 0.30 0.00 99 1005.3
20260505052013 12 0 0.0 0.0 0.00 0.30 0.00 99 1005.4
20260505051012 12 0 0.0 0.0 0.00 0.30 0.00 99 1005.2
20260505041011 11 0 0.0 0.0 0.00 0.30 0.00 99 1005.3
20260505040009 11 0 0.0 0.0 0.00 0.30 0.00 99 1005.0
20260505035011 11 225 0.0 3.2 0.00 0.30 0.00 99 1005.1
20260505034011 11 251 0.0 1.6 0.00 0.30 0.00 99 1005.1
20260505033008 11 270 0.0 1.6 0.00 0.30 0.00 99 1005.1
20260505032011 11 248 0.0 1.6 0.00 0.30 0.00 99 1005.1
20260505031008 11 225 0.0 3.2 0.00 0.30 0.00 99 1005.2
20260505030009 11 225 1.6 3.2 0.00 0.30 0.00 99 1005.3
20260505025011 11 0 0.0 0.0 0.00 0.30 0.00 99 1005.5
20260505024009 11 225 0.0 1.6 0.00 0.30 0.00 99 1005.6
20260505023008 11 223 0.0 1.6 0.00 0.30 0.00 99 1005.6
20260505022011 11 248 0.0 1.6 0.00 0.30 0.00 99 1005.5
20260505021008 11 0 0.0 0.0 0.00 0.30 0.00 99 1005.5
20260505020008 11 211 0.0 3.2 0.00 0.30 0.00 99 1005.4
20260505015011 11 249 0.0 1.6 0.00 0.30 0.00 99 1005.3
20260505014009 11 0 0.0 0.0 0.00 0.30 0.00 99 1005.4
20260505013008 11 171 0.0 3.2 0.00 0.30 0.00 99 1005.3
20260505012010 12 191 1.6 3.2 0.00 0.30 0.00 99 1005.4
20260505011008 12 254 0.0 3.2 0.00 0.30 0.00 99 1005.2
20260505010009 12 199 0.0 3.2 0.00 0.30 0.00 99 1005.2
20260505005014 12 202 0.0 3.2 0.00 0.30 0.00 99 1005.2
20260505004007 11 270 0.0 1.6 0.00 0.30 0.00 99 1005.2
20260505003008 12 270 0.0 3.2 0.00 0.30 0.00 99 1005.3
20260505002011 12 270 0.0 3.2 0.00 0.30 0.00 99 1005.5
20260505001012 12 0 0.0 0.0 0.00 0.30 0.00 99 1005.5
20260505000010 12 197 0.0 1.6 0.00 0.30 0.00 99 1005.7
20260504235012 12 190 0.0 3.2 0.00 0.30 0.00 99 1005.7
20260504234012 12 31 0.0 6.4 0.00 0.30 0.00 99 1005.6
20260504233011 12 92 0.0 3.2 0.00 0.30 0.00 99 1005.5
20260504232011 12 21 0.0 6.4 0.00 0.30 0.00 99 1005.6
20260504231013 12 46 0.0 6.4 0.00 0.30 0.00 99 1005.8
20260504230010 12 357 3.2 6.4 0.00 0.30 0.00 99 1005.6
20260504225012 12 219 0.0 3.2 0.00 0.30 0.00 99 1005.7
20260504224012 12 299 0.0 4.8 0.00 0.30 0.00 99 1005.6
20260504223010 12 250 0.0 3.2 0.00 0.30 0.00 99 1005.6
20260504222010 12 176 0.0 3.2 0.03 0.30 0.00 99 1005.5
20260504221013 12 229 0.0 3.2 0.03 0.30 0.00 99 1005.3
20260504220011 13 217 1.6 3.2 0.15 0.30 0.00 99 1005.2
20260504215013 13 313 0.0 6.4 0.23 0.30 0.30 99 1005.1
20260504214012 13 80 1.6 6.4 0.23 0.30 0.30 99 1005.1
20260504213010 13 135 1.6 6.4 0.28 0.30 0.30 99 1005.8
20260504212013 13 333 1.6 9.7 0.23 0.28 0.28 99 1006.3
20260504211012 13 252 1.6 6.4 0.23 0.23 0.23 99 1006.5
20260504210009 14 238 1.6 6.4 0.15 0.15 0.15 99 1006.4
20260504205012 15 266 0.0 4.8 0.05 0.05 0.05 99 1006.1
20260504204009 15 220 0.0 3.2 0.05 0.05 0.05 99 1005.9
20260504203009 16 214 0.0 1.6 0.03 0.03 0.03 94 1005.4
20260504202012 17 17 0.0 3.2 0.03 0.03 0.03 87 1005.2
20260504201011 18 347 0.0 4.8 0.00 0.00 0.00 77 1005.0
20260504200009 20 333 0.0 6.4 0.00 0.00 0.00 67 1004.8
20260504195012 20 353 1.6 8.0 0.00 0.00 0.00 66 1004.7
20260504194011 20 359 3.2 8.0 0.00 0.00 0.00 65 1004.6
20260504193010 20 351 0.0 6.4 0.00 0.00 0.00 64 1004.5
20260504192012 20 344 0.0 3.2 0.00 0.00 0.00 64 1004.7
20260504191012 20 351 1.6 3.2 0.00 0.00 0.00 63 1004.5
20260504190010 20 350 3.2 6.4 0.00 0.00 0.00 62 1004.3
20260504185012 20 357 1.6 3.2 0.00 0.00 0.00 61 1004.2
20260504184008 20 342 0.0 4.8 0.00 0.00 0.00 58 1004.0
20260504183009 20 356 0.0 1.6 0.00 0.00 0.00 57 1003.9
20260504182011 21 350 0.0 3.2 0.00 0.00 0.00 54 1003.7
20260504181011 21 359 0.0 3.2 0.00 0.00 0.00 52 1003.5
20260504180009 22 15 0.0 6.4 0.00 0.00 0.00 52 1003.4
20260504175011 22 35 1.6 6.4 0.00 0.00 0.00 52 1003.4
20260504174012 23 28 0.0 4.8 0.00 0.00 0.00 51 1003.1
20260504173009 23 9 0.0 9.7 0.00 0.00 0.00 50 1003.1
20260504172010 23 42 3.2 9.7 0.00 0.00 0.00 49 1003.2
20260504171011 23 42 6.4 9.7 0.00 0.00 0.00 48 1003.2
20260504151008 25 308 0.0 6.4 0.00 0.00 0.00 43 1003.4
20260504141008 26 186 3.2 6.4 0.00 0.00 0.00 41 1003.7
20260504081009 20 135 0.0 1.6 0.00 0.00 0.00 65 1010.2